Location: Quedlinburg
(51.7921°N, 11.1414°E)
Time: 08:48:47
(UTC+02:00)

RS-44 - Pass Details

Date: 20 March 2026
Orbit: 1175 x 1510 km, 82.5° (Epoch: 17 April)

Event Time Altitude Azimuth Distance (km) Brightness Sun altitude
Rises 00:26:20 0° 349° (N) 4,403 ? -38.5°
Reaches altitude 10° 00:29:35 10° 0° (N) 3,476 ? -38.4°
Maximum altitude 00:36:45 30° 59° (ENE) 2,360 ? -38.4°
Enters shadow 00:39:56 24° 93° (E) 2,657 ? -38.3°
